Location: Newark
(7.0858°N, 171.3717°E)
Time: 10:28:59
(UTC+00:00)

A-11 Canister half - Pass Details

Date: 02 August 2021
Orbit: 1526 x 1683 km, 47.3° (Epoch: 23 September)

Event Time Altitude Azimuth Distance (km) Brightness Sun altitude
Rises 08:26:28 0° 314° (NW) 4,769 12.8 -22.5°
Reaches altitude 10° 08:29:37 10° 311° (NW) 3,764 12.0 -23.3°
Maximum altitude 08:38:58 65° 231° (SW) 1,668 9.2 -25.4°
Enters shadow 08:43:51 31° 160° (SSE) 2,422 9.6 -26.5°
